Location: Haliburton Scout Reserve
(45.0900°N, 78.3200°W)
Time: 12:41:13
(UTC-04:00)

NOAA 15 - Visible Passes

Search period start: 17 May 2022 00:00
Search period end: 27 May 2022 00:00
Orbit: 797 x 812 km, 98.6° (Epoch: 17 May)

Date Brightness Start Highest point End Pass type
(mag) Time Alt. Az. Time Alt. Az. Time Alt. Az.
17 May 6.8 21:06:42 10° SSW 21:11:01 26° W 21:15:21 10° NW visible
20 May 7.2 21:32:08 10° SW 21:35:17 16° W 21:38:26 10° NW visible
24 May 7.2 21:30:46 10° SW 21:33:59 16° W 21:37:14 10° NW visible
